STARLINK-30306 (57633 NORAD) Tracking and Keplerian Element Data

This shows tracking and keplerian element data for the satellite.

Feedback or suggestion? Click here.




ElementValue
Catalog57633
NameSTARLINK-30306
Epoch Orbit2385
Epoch Day13.16329663
Epoch Year2024
RAAN48.7548
Inclination43.0029
Eccentricity7E-05
Argument of Perigee243.5987
Mean Anonmoly116.4783
Mean Motion15.02528016
Decay Rate0.00011351
L11 57633U 23122B 24013.16329663 .00011351 00000+0 85416-3 0 9997
L22 57633 43.0029 48.7548 0000700 243.5987 116.4783 15.02528016 23853



Live tracking and technical data element details for STARLINK-30306 (NORAD 57633). STARLINK-30306 can be tracked NOW for your location showing map with azimuth and elevation plus other details from your city location.







IsCatalogInMostPopularTable: catalog: 57633, numindb: 25
Update: records affected: 1



GetName: 57633 STARLINK-30306

Hit Count: updated at: Thu, 29 Feb 2024 13:04:25 GMT